sat.trackr.live / text

‹ back to catalog

STARLINK-34521

NORAD 64612 · 2025-137U

PAYLOAD ACTIVE UNKNOWN

§ Identity

Operator
Country
US
Launch date
2025-06-25
Launch site
AFETR
Launch vehicle
Mass (kg)
RCS (m²)

Purposes: comms

External: N2YO · Heavens-Above · Gunter

§ Orbital elements

Epoch: 2026-09-20T22:42:44.903520Z

Period
93.85 min
Inclination
53.1600°
Eccentricity
0.0001441
Mean motion
15.34407347 rev/d
Perigee alt
461.7 km
Apogee alt
463.7 km
Semi-major
6,840.8 km
B*
4.8982e-4
RAAN
147.2898°
Arg perigee
85.6341°
Mean anomaly
274.4826°
Rev number
7,064

§ Raw data

STARLINK-345211 64612U 25137U   26263.94635305  .00016213  00000+0  48982-3 0  99972 64612  53.1600 147.2898 0001441  85.6341 274.4826 15.34407347 70640

JSON: /api/v1/satellites/64612 · /tle

For live sub-satellite position, see the globe view (requires WebGL).

§ Visibility from observer

Set your observer location to see the next 7 days of passes ≥ 10°. The values pass through the URL so the page stays shareable.

No JS? Fill the form by hand. The geolocation button needs JavaScript.